TDO-4 (48620 NORAD) Tracking and Keplerian Element Data

This shows tracking and keplerian element data for the satellite.

Feedback or suggestion? Click here.




ElementValue
Catalog48620
NameTDO-4
Epoch Orbit825
Epoch Day214.95934889
Epoch Year2021
RAAN70.9623
Inclination26.1845
Eccentricity0.2330714
Argument of Perigee214.8328
Mean Anonmoly127.346
Mean Motion10.97248404
Decay Rate0.00192833
L11 48620U 21042C 21214.95934889 .00192833 -32139-5 64635-3 0 9991
L22 48620 26.1845 70.9623 2330714 214.8328 127.3460 10.97248404 8250

Live tracking and technical data element details for TDO-4 (NORAD 48620). TDO-4 can be tracked NOW for your location showing map with azimuth and elevation plus other details from your city location.

Track the satellite on the map from your city or location and see movement details for azimuth, elevation, latitude, longitude, range, height, and movement on the map or in text.







IsCatalogInMostPopularTable: catalog: 48620, numindb: 19
Update: records affected: 1



GetName: 48620 TDO-4

Hit Count: updated at: Tue, 03 Aug 2021 21:25:21 GMT